Location: Newark
(45.6833°N, 12.6333°E)
Time: 02:11:28
(UTC+00:00)

N. Korean satellite - Pass Details

Date: 21 November 2019
Orbit: 455 x 507 km, 97.2° (Epoch: 13 December)

Event Time Altitude Azimuth Distance (km) Brightness Sun altitude
Rises 05:15:51 0° 10° (N) 2,617 10.2 -10.6°
Reaches altitude 10° 05:17:58 10° 8° (N) 1,722 9.2 -10.2°
Maximum altitude 05:21:39 70° 285° (WNW) 534 6.5 -9.6°
Drops below altitude 10° 05:25:16 10° 201° (SSW) 1,685 9.3 -9.0°
Sets 05:27:19 0° 199° (SSW) 2,554 10.2 -8.7°
